星链-11287 (STARLINK-11287)

导读

STARLINK-11287是美国太空探索技术公司SpaceX星链星座的一颗卫星,于2024年9月5日在卡纳维拉尔角航天发射场成功发射升空。作为星链星座组网进程中的一员,它主要用于提供全球卫星互联网服务,助力实现全球无缝覆盖的高速网络连接,填补地面网络难以覆盖区域的通信空白,支持各类终端的互联网接入服务。

基本信息
目录编号:
60998
目录名称:
STARLINK-11287
国际标识:
2024-158J
轨道中心:
EARTH
卫星名称:
星链-11287
卫星全名:
星链-11287 (STARLINK-11287)
卫星状态:
在轨 (已飞行647 天)
发射日期:
2024-09-05 UTC
国别 :
美国 (US)
星等 :
--
轨道信息
数据来源 国际轨道数据
星历时间: 2026-06-14T00:59:24+0800
18小时前
查看轨道信息
半长轴: 6737.893km
偏心率: 0.0001329
轨道倾角: 53.159°
近地点辐角 79.312°
升交点赤经 168.056°
平近点角 280.805°
近地点: 358.86km
远地点: 360.652km
周期: 91.737分钟
每日圈数: 15.696999
详细信息
固有亮度:
5
最大亮度:
2.5
卫星平台:
Starlink V1.0
覆盖范围:
全球
运营商:
太空探索技术公司
运营商所在国:
美国
制造商(研发单位):
太空探索技术公司
制造商所在国:
美国
使用方式:
暂无
卫星简介
Starlink 计划是 SpaceX 推出的全球卫星互联网项目,通过发射低轨道卫星,为全球尤其是偏远地区提供高速、低延迟的互联网服务。自 2019 年起,Starlink 已部署数千颗卫星,旨在缩小全球数字鸿沟,推动互联网普及。该项目还为军事、航空等行业提供通信支持,带来广泛经济效益。
2D轨道图
3D轨道图
轨道高度分析图
轨道倾角分析图
轨道综合分析图
查看轨道综合分析图